Regional Weather Roundup
Issued by NWS Bismarck, ND

Home | Current Version | Previous Version | Text Only | Print | Product List | Glossary On
Versions: 1 2 3 4 5 6 7 8 9 10 11 12 13 14 15 16 17 18 19 20 21 22 23 24 25 26 27 28 29 30 31 32 33 34 35 36 37 38 39 40 41 42 43 44 45 46 47 48 49 50
000
ASUS43 KBIS 180410
RWRBIS

NWR BROADCAST TEXT
NATIONAL WEATHER SERVICE BISMARCK ND
1000 PM CST WED JAN 17 2018

NOTE: "FAIR" INDICATES FEW OR NO CLOUDS BELOW 12,000 FEET WITH NO
SIGNIFICANT WEATHER AND/OR OBSTRUCTIONS TO VISIBILITY.


CITY           SKY/WX    TMP DP  RH WIND       PRES   REMARKS
WILLISTON      CLOUDY    25  18  74 SW15      29.95F WCI  13
MINOT          FAIR      37  22  54 SW24G35   29.87F
MINOT AFB      PTCLDY    31  22  68 W17       29.85F WCI  20
BISMARCK       FAIR      29  21  72 SW9       30.00F
DICKINSON      FAIR      25  18  74 W13       29.96F WCI  14
GARRISON         N/A     25  19  78 W10       29.93F WCI  15
HETTINGER ARPT PTCLDY    25  18  74 W7        30.02F WCI  17
JAMESTOWN      FAIR      32  23  69 W16       29.93S
CARRINGTON     FAIR      32  25  74 W22       29.92S WCI  19
HAZEN          FAIR      28  23  80 SW14      29.98S WCI  17
LINTON           N/A     23  18  80 NW5       30.04F WCI  17
MANDAN         FAIR      28  21  74 W15       29.97F WCI  17
OAKES            N/A     25  19  80 SW12      30.01S WCI  14
RUGBY          FAIR      27  21  80 W14       29.85F WCI  15
STANLEY        FAIR      27  21  80 W20       29.91F WCI  13
TIOGA          FAIR      27  19  74 SW21      29.91F WCI  13
WATFORD CITY   FAIR      25  18  74 W6        29.95F WCI  18
$$

CITY           SKY/WX    TMP DP  RH WIND       PRES   REMARKS
GRAND FORKS    MOCLDY    34  25  69 SW16      29.83F
GRAND FORKS AF FAIR      35  24  64 W18G25    29.83F
DEVILS LAKE    FAIR      29  23  78 W18       29.85F WCI  16
FARGO          FAIR      31  22  69 SW20      29.94S WCI  19
CANDO          FAIR      30  21  69 W23G30    29.83F WCI  17
CAVALIER         N/A     36  23  60 W22G29    29.74F
GRAFTON        FAIR      30  23  74 W17G24    29.81F WCI  18
GWINNER          N/A     27  21  80 W14       29.99S WCI  15
LANGDON        FAIR      27  27 100 W23G30    29.76F WCI  12
ROLLA          CLOUDY    30  23  74 W18G24    29.77S WCI  18
WALHALLA       FAIR      36  23  60 W20G33    29.71F
$$

CITY           SKY/WX    TMP DP  RH WIND       PRES   REMARKS
ABERDEEN       CLEAR     21  18  88 SW7       30.05F WCI  12
MOBRIDGE       CLEAR     27  20  75 CALM      30.03S
BUFFALO          N/A     31  21  66 W14       29.96F
RAPID CITY     PTCLDY    32  16  51 NW5       30.08F
GLASGOW        MOCLDY    20  16  84 SE7       29.92F WCI  11
SIDNEY         CLEAR     19  14  81 S8        29.97F WCI   9
WOLF POINT     PTCLDY    10   5  80 NE7       29.97F WCI  -1
GLENDIVE       CLEAR     20  15  81 SE13      29.98F WCI   7
MILES CITY     CLOUDY    21  15  78 S6        30.00F WCI  13
BAKER          PTCLDY    35  23  61 SW20G28   30.00F
$$

CITY           SKY/WX    TMP DP  RH WIND       PRES   REMARKS
BILLINGS       CLOUDY    39  21  48 SW24      30.02F
GREAT FALLS    CLOUDY    43  21  41 SW21      29.93F
REGINA         PTCLDY    21  14  73 W7        29.82F WCI  13
ESTEVAN        CLEAR     23  16  74 SW12G17   29.86F WCI  12
$$




USA.gov is the U.S. government's official web portal to all federal, state and local government web resources and services.